Lorraine — A8IZ3 — position and weather

sailwx.info

Track history (hours):
 
Tides and Currents Weather Stations Pressure Air Temp Water Temp Dewpoint Dewpoint Depression Visibility Wind Speed Wind Dir Waves Ship Positions

Lorraine

Last reported at 2014-Sep-23 20:34 UTC. Time now 2014-Sep-24 02:23 UTC.
Position N 40°38' E 014°12'.

Length 221 m; draft 7.4 m.

Type: Ship. MMSI: 636012905.

Date/timePositionNaut miles runAvg speedWind from/ knotsBaromVisibWave heightAir tempDewpointWater temp
2014-Sep-23 20:34N 40°38' E 014°12'11 0.7
2014-Sep-23 04:33N 40°49' E 014°17'6 5.9
2014-Sep-23 03:33N 40°44' E 014°12'1010.0
2014-Sep-23 02:33N 40°38' E 014°02'1514.5
2014-Sep-23 01:33N 40°37' E 013°43'1515.3
2014-Sep-23 00:33N 40°39' E 013°23'15615.1
2014-Sep-22 14:13N 42°00' E 010°26'1315.3
2014-Sep-22 13:22N 42°08' E 010°11'1615.1
2014-Sep-22 12:20N 42°18' E 009°55'8 9.5
2014-Sep-22 11:29N 42°26' E 009°53'1515.0
2014-Sep-22 10:30N 42°40' E 009°53'1415.0
2014-Sep-22 09:32N 42°54' E 009°58'1515.3
2014-Sep-22 08:33N 43°09' E 010°04'1515.0
2014-Sep-22 07:33N 43°23' E 010°10'1111.5
2014-Sep-22 06:33N 43°33' E 010°18'1 1.3
2014-Sep-22 05:31N 43°34' E 010°18'0 0.0
2014-Sep-22 04:33N 43°34' E 010°18'0 0.0
2014-Sep-22 03:33N 43°34' E 010°18'0 0.0
2014-Sep-22 02:32N 43°34' E 010°18'0 0.0
2014-Sep-22 01:32N 43°34' E 010°18'0 0.0
2014-Sep-22 00:31N 43°34' E 010°18'0 0.0
2014-Sep-21 23:31N 43°34' E 010°18'0 0.0
2014-Sep-21 22:31N 43°34' E 010°18'0 0.0
2014-Sep-21 21:33N 43°34' E 010°18'0 0.0
2014-Sep-21 20:33N 43°34' E 010°18'0 0.0
2014-Sep-21 19:32N 43°34' E 010°18'0 0.0
2014-Sep-21 18:32N 43°34' E 010°18'0 0.0
2014-Sep-21 17:31N 43°34' E 010°18'0 0.0
2014-Sep-21 16:31N 43°34' E 010°18'2 2.5
2014-Sep-21 15:33N 43°32' E 010°17'6 6.2
2014-Sep-21 14:33N 43°30' E 010°09'1212.3
2014-Sep-21 13:33N 43°32' E 009°52'1515.1
2014-Sep-21 12:33N 43°42' E 009°36'1515.1
2014-Sep-21 11:33N 43°52' E 009°20'1514.6
2014-Sep-21 10:33N 44°02' E 009°06'1515.0
2014-Sep-21 09:34N 44°13' E 008°52'1312.7
2014-Sep-21 08:33N 44°25' E 008°45'1 1.2
2014-Sep-21 07:31N 44°25' E 008°47'0 0.0
2014-Sep-21 06:33N 44°25' E 008°47'0 0.0
2014-Sep-21 05:33N 44°25' E 008°47'0 0.0
2014-Sep-21 04:33N 44°25' E 008°47'0 0.0
2014-Sep-21 03:32N 44°25' E 008°47'0 0.0
2014-Sep-21 02:32N 44°25' E 008°47'0 0.0
2014-Sep-21 01:31N 44°25' E 008°47'0 0.0
2014-Sep-21 00:28N 44°25' E 008°47'0 0.0
2014-Sep-20 23:33N 44°25' E 008°47'0 0.0
2014-Sep-20 22:33N 44°25' E 008°47'0 0.0
2014-Sep-20 21:33N 44°25' E 008°47'0 0.0
2014-Sep-20 20:29N 44°25' E 008°47'0 0.0
2014-Sep-20 19:32N 44°25' E 008°47'0 0.0
2014-Sep-20 18:31N 44°25' E 008°47'0 0.0
2014-Sep-20 17:31N 44°25' E 008°47'0 0.0
2014-Sep-20 16:33N 44°25' E 008°47'0 0.0
2014-Sep-20 15:33N 44°25' E 008°47'0 0.0
2014-Sep-20 14:33N 44°25' E 008°47'0 0.0
2014-Sep-20 13:32N 44°25' E 008°47'0 0.0
2014-Sep-20 12:32N 44°25' E 008°47'0 0.0
2014-Sep-20 11:31N 44°25' E 008°47'3 2.8
2014-Sep-20 10:32N 44°23' E 008°44'7 6.9
2014-Sep-20 09:33N 44°17' E 008°46'1515.1
2014-Sep-20 08:33N 44°03' E 008°56'1515.4
2014-Sep-20 07:33N 43°49' E 009°05'1414.2
2014-Sep-20 06:33N 43°37' E 009°14'1414.5
2014-Sep-20 05:33N 43°24' E 009°23'1515.3
2014-Sep-20 04:33N 43°10' E 009°32'1616.0
2014-Sep-20 03:33N 42°55' E 009°40'1615.5
2014-Sep-20 02:33N 42°40' E 009°45'1615.1
2014-Sep-20 01:31N 42°25' E 009°51'4715.5
2014-Sep-19 22:28N 41°38' E 009°58'13215.7
2014-Sep-19 14:05N 39°26' E 009°48'2314.9
2014-Sep-19 12:33N 39°04' E 009°40'1312.6
2014-Sep-19 11:33N 38°59' E 009°25'1514.6
2014-Sep-19 10:34N 39°06' E 009°09'8 7.5
2014-Sep-19 09:33N 39°13' E 009°04'0 0.0
2014-Sep-19 08:32N 39°13' E 009°04'0 0.0
2014-Sep-19 07:32N 39°13' E 009°04'0 0.0
2014-Sep-19 06:31N 39°13' E 009°04'0 0.0
2014-Sep-19 05:31N 39°13' E 009°04'0 0.0
2014-Sep-19 04:34N 39°13' E 009°04'0 0.0
2014-Sep-19 03:33N 39°13' E 009°04'0 0.0
2014-Sep-19 02:33N 39°13' E 009°04'0 0.0
2014-Sep-19 01:32N 39°13' E 009°04'0 0.0
2014-Sep-19 00:32N 39°13' E 009°04'0 0.0
2014-Sep-18 23:31N 39°13' E 009°04'0 0.0
2014-Sep-18 22:31N 39°13' E 009°04'0 0.1
2014-Sep-18 21:34N 39°13' E 009°04'8 8.3
2014-Sep-18 20:33N 39°06' E 009°09'1515.0
2014-Sep-18 19:33N 38°57' E 009°25'4614.9
2014-Sep-18 16:28N 38°31' E 010°14'1314.6
2014-Sep-18 15:33N 38°23' E 010°27'4414.4
2014-Sep-18 12:31N 37°59' E 011°13'11814.8
2014-Sep-18 04:33N 37°00' E 013°22'1515.1
2014-Sep-18 03:34N 36°53' E 013°38'1614.8
2014-Sep-18 02:30N 36°45' E 013°55'1414.4
2014-Sep-18 01:33N 36°38' E 014°10'1614.6
2014-Sep-18 00:27N 36°30' E 014°28'42614.7
2014-Sep-16 19:27N 36°27' E 023°17'2015.3
2014-Sep-16 18:07N 36°44' E 023°30'914.9
2014-Sep-16 17:32N 36°51' E 023°36'2914.8
2014-Sep-16 15:33N 37°16' E 023°56'1514.8
2014-Sep-16 14:33N 37°30' E 024°04'1914.8
2014-Sep-16 13:16N 37°44' E 024°19'4614.6
2014-Sep-16 10:07N 38°13' E 025°05'2415.0
2014-Sep-16 08:32N 38°26' E 025°30'1615.4
2014-Sep-16 07:30N 38°35' E 025°47'3 0.1
2014-Sep-15 05:12N 38°37' E 025°50'1117.6
2014-Sep-15 04:33N 38°27' E 025°42'1919.3
2014-Sep-15 03:33N 38°08' E 025°45'2019.8
2014-Sep-15 02:33N 37°48' E 025°46'1918.9
2014-Sep-15 01:33N 37°30' E 025°50'1818.3
2014-Sep-15 00:33N 37°13' E 026°01'1918.5
2014-Sep-14 23:31N 36°57' E 026°14'1718.1
2014-Sep-14 22:33N 36°44' E 026°28'1818.4
2014-Sep-14 21:33N 36°32' E 026°45'1818.3
2014-Sep-14 20:33N 36°18' E 026°60'2718.6
2014-Sep-14 19:05N 35°57' E 027°22'4816.4
2014-Sep-14 16:10N 35°40' E 028°17'1118.4
2014-Sep-14 15:33N 35°40' E 028°31'  
Track history (hours):
 
Tides and Currents Weather Stations Pressure Air Temp Water Temp Dewpoint Dewpoint Depression Visibility Wind Speed Wind Dir Waves Ship Positions

Lorraine

Last reported at 2014-Sep-23 20:34 UTC. Time now 2014-Sep-24 02:23 UTC.
Position N 40°38' E 014°12'.

Length 221 m; draft 7.4 m.

Type: Ship. MMSI: 636012905.

Date/timePositionNaut miles runAvg speedWind from/ knotsBaromVisibWave heightAir tempDewpointWater temp
2014-Sep-23 20:34N 40°38' E 014°12'11 0.7
2014-Sep-23 04:33N 40°49' E 014°17'6 5.9
2014-Sep-23 03:33N 40°44' E 014°12'1010.0
2014-Sep-23 02:33N 40°38' E 014°02'1514.5
2014-Sep-23 01:33N 40°37' E 013°43'1515.3
2014-Sep-23 00:33N 40°39' E 013°23'15615.1
2014-Sep-22 14:13N 42°00' E 010°26'1315.3
2014-Sep-22 13:22N 42°08' E 010°11'1615.1
2014-Sep-22 12:20N 42°18' E 009°55'8 9.5
2014-Sep-22 11:29N 42°26' E 009°53'1515.0
2014-Sep-22 10:30N 42°40' E 009°53'1415.0
2014-Sep-22 09:32N 42°54' E 009°58'1515.3
2014-Sep-22 08:33N 43°09' E 010°04'1515.0
2014-Sep-22 07:33N 43°23' E 010°10'1111.5
2014-Sep-22 06:33N 43°33' E 010°18'1 1.3
2014-Sep-22 05:31N 43°34' E 010°18'0 0.0
2014-Sep-22 04:33N 43°34' E 010°18'0 0.0
2014-Sep-22 03:33N 43°34' E 010°18'0 0.0
2014-Sep-22 02:32N 43°34' E 010°18'0 0.0
2014-Sep-22 01:32N 43°34' E 010°18'0 0.0
2014-Sep-22 00:31N 43°34' E 010°18'0 0.0
2014-Sep-21 23:31N 43°34' E 010°18'0 0.0
2014-Sep-21 22:31N 43°34' E 010°18'0 0.0
2014-Sep-21 21:33N 43°34' E 010°18'0 0.0
2014-Sep-21 20:33N 43°34' E 010°18'0 0.0
2014-Sep-21 19:32N 43°34' E 010°18'0 0.0
2014-Sep-21 18:32N 43°34' E 010°18'0 0.0
2014-Sep-21 17:31N 43°34' E 010°18'0 0.0
2014-Sep-21 16:31N 43°34' E 010°18'2 2.5
2014-Sep-21 15:33N 43°32' E 010°17'6 6.2
2014-Sep-21 14:33N 43°30' E 010°09'1212.3
2014-Sep-21 13:33N 43°32' E 009°52'1515.1
2014-Sep-21 12:33N 43°42' E 009°36'1515.1
2014-Sep-21 11:33N 43°52' E 009°20'1514.6
2014-Sep-21 10:33N 44°02' E 009°06'1515.0
2014-Sep-21 09:34N 44°13' E 008°52'1312.7
2014-Sep-21 08:33N 44°25' E 008°45'1 1.2
2014-Sep-21 07:31N 44°25' E 008°47'0 0.0
2014-Sep-21 06:33N 44°25' E 008°47'0 0.0
2014-Sep-21 05:33N 44°25' E 008°47'0 0.0
2014-Sep-21 04:33N 44°25' E 008°47'0 0.0
2014-Sep-21 03:32N 44°25' E 008°47'0 0.0
2014-Sep-21 02:32N 44°25' E 008°47'0 0.0
2014-Sep-21 01:31N 44°25' E 008°47'0 0.0
2014-Sep-21 00:28N 44°25' E 008°47'0 0.0
2014-Sep-20 23:33N 44°25' E 008°47'0 0.0
2014-Sep-20 22:33N 44°25' E 008°47'0 0.0
2014-Sep-20 21:33N 44°25' E 008°47'0 0.0
2014-Sep-20 20:29N 44°25' E 008°47'0 0.0
2014-Sep-20 19:32N 44°25' E 008°47'0 0.0
2014-Sep-20 18:31N 44°25' E 008°47'0 0.0
2014-Sep-20 17:31N 44°25' E 008°47'0 0.0
2014-Sep-20 16:33N 44°25' E 008°47'0 0.0
2014-Sep-20 15:33N 44°25' E 008°47'0 0.0
2014-Sep-20 14:33N 44°25' E 008°47'0 0.0
2014-Sep-20 13:32N 44°25' E 008°47'0 0.0
2014-Sep-20 12:32N 44°25' E 008°47'0 0.0
2014-Sep-20 11:31N 44°25' E 008°47'3 2.8
2014-Sep-20 10:32N 44°23' E 008°44'7 6.9
2014-Sep-20 09:33N 44°17' E 008°46'1515.1
2014-Sep-20 08:33N 44°03' E 008°56'1515.4
2014-Sep-20 07:33N 43°49' E 009°05'1414.2
2014-Sep-20 06:33N 43°37' E 009°14'1414.5
2014-Sep-20 05:33N 43°24' E 009°23'1515.3
2014-Sep-20 04:33N 43°10' E 009°32'1616.0
2014-Sep-20 03:33N 42°55' E 009°40'1615.5
2014-Sep-20 02:33N 42°40' E 009°45'1615.1
2014-Sep-20 01:31N 42°25' E 009°51'4715.5
2014-Sep-19 22:28N 41°38' E 009°58'13215.7
2014-Sep-19 14:05N 39°26' E 009°48'2314.9
2014-Sep-19 12:33N 39°04' E 009°40'1312.6
2014-Sep-19 11:33N 38°59' E 009°25'1514.6
2014-Sep-19 10:34N 39°06' E 009°09'8 7.5
2014-Sep-19 09:33N 39°13' E 009°04'0 0.0
2014-Sep-19 08:32N 39°13' E 009°04'0 0.0
2014-Sep-19 07:32N 39°13' E 009°04'0 0.0
2014-Sep-19 06:31N 39°13' E 009°04'0 0.0
2014-Sep-19 05:31N 39°13' E 009°04'0 0.0
2014-Sep-19 04:34N 39°13' E 009°04'0 0.0
2014-Sep-19 03:33N 39°13' E 009°04'0 0.0
2014-Sep-19 02:33N 39°13' E 009°04'0 0.0
2014-Sep-19 01:32N 39°13' E 009°04'0 0.0
2014-Sep-19 00:32N 39°13' E 009°04'0 0.0
2014-Sep-18 23:31N 39°13' E 009°04'0 0.0
2014-Sep-18 22:31N 39°13' E 009°04'0 0.1
2014-Sep-18 21:34N 39°13' E 009°04'8 8.3
2014-Sep-18 20:33N 39°06' E 009°09'1515.0
2014-Sep-18 19:33N 38°57' E 009°25'4614.9
2014-Sep-18 16:28N 38°31' E 010°14'1314.6
2014-Sep-18 15:33N 38°23' E 010°27'4414.4
2014-Sep-18 12:31N 37°59' E 011°13'11814.8
2014-Sep-18 04:33N 37°00' E 013°22'1515.1
2014-Sep-18 03:34N 36°53' E 013°38'1614.8
2014-Sep-18 02:30N 36°45' E 013°55'1414.4
2014-Sep-18 01:33N 36°38' E 014°10'1614.6
2014-Sep-18 00:27N 36°30' E 014°28'42614.7
2014-Sep-16 19:27N 36°27' E 023°17'2015.3
2014-Sep-16 18:07N 36°44' E 023°30'914.9
2014-Sep-16 17:32N 36°51' E 023°36'2914.8
2014-Sep-16 15:33N 37°16' E 023°56'1514.8
2014-Sep-16 14:33N 37°30' E 024°04'1914.8
2014-Sep-16 13:16N 37°44' E 024°19'4614.6
2014-Sep-16 10:07N 38°13' E 025°05'2415.0
2014-Sep-16 08:32N 38°26' E 025°30'1615.4
2014-Sep-16 07:30N 38°35' E 025°47'3 0.1
2014-Sep-15 05:12N 38°37' E 025°50'1117.6
2014-Sep-15 04:33N 38°27' E 025°42'1919.3
2014-Sep-15 03:33N 38°08' E 025°45'2019.8
2014-Sep-15 02:33N 37°48' E 025°46'1918.9
2014-Sep-15 01:33N 37°30' E 025°50'1818.3
2014-Sep-15 00:33N 37°13' E 026°01'1918.5
2014-Sep-14 23:31N 36°57' E 026°14'1718.1
2014-Sep-14 22:33N 36°44' E 026°28'1818.4
2014-Sep-14 21:33N 36°32' E 026°45'1818.3
2014-Sep-14 20:33N 36°18' E 026°60'2718.6
2014-Sep-14 19:05N 35°57' E 027°22'4816.4
2014-Sep-14 16:10N 35°40' E 028°17'1118.4
2014-Sep-14 15:33N 35°40' E 028°31'  

Dump ship's entire track history